Newport, AR

12:48 AM CDT on June 26, 2017 (GMT -0500)
Newport

Weather History for KM19 - January, 2014

Change the Weather History Date:

Saturday, January 4, 2014

  Actual Average (KBVX) Record (KBVX)
Temperature  
Mean Temperature 34 °F -  
Max Temperature 43 °F 46 °F 78 °F (1997)
Min Temperature 25 °F 25 °F 5 °F (1959)
Degree Days  
Heating Degree Days 31    
Moisture  
Dew Point 25 °F    
Average Humidity 67    
Maximum Humidity 83    
Minimum Humidity 53    
Precipitation  
Precipitation 0.00 in - - ()
Sea Level Pressure  
Sea Level Pressure 30.06 in    
Wind  
Wind Speed 12 mph (SSE)    
Max Wind Speed 22 mph    
Max Gust Speed 30 mph    
Visibility 10 miles    
Events      
Averages and records for this station are not official NWS values.
T = Trace of Precipitation, MM = Missing Value Source: NWS Daily Summary

Daily Weather History Graph

Daily Weather History Graph

Search for Another Location

Airport or City:

Trip Planner

Search our weather history database for the weather conditions in past years. The results will help you decide how hot, cold, wet, or windy it might be!

Date:

Astronomy

Jan. 04, 2014 Rise Set
Actual Time 7:14 AM CST 5:04 PM CST
Civil Twilight 6:46 AM CST 5:33 PM CST
Nautical Twilight 6:14 AM CST 6:04 PM CST
Astronomical Twilight 5:43 AM CST 6:35 PM CST
Moon 9:28 AM CST (1/4) 9:15 PM CST (1/4)
Length of Visible Light 10h 46m
Length of Day
9h 50m
Waxing Crescent, 15% of the Moon is Illuminated
Jan 4
Waxing Crescent
Jan 7
First Quarter
Jan 15
Full
Jan 23
Last Quarter
Jan 30
New

Hourly Weather History & Observations

Time (CST) Temp. Windchill Dew Point Humidity Pressure Visibility Wind Dir Wind Speed Gust Speed Precip Events Conditions
12:56 AM 27.1 °F 16.9 °F 19.0 °F 72% 30.22 in 10.0 mi South 11.5 mph - N/A   Clear
1:56 AM 27.1 °F 16.4 °F 19.0 °F 72% 30.21 in 10.0 mi SSE 12.7 mph - N/A   Clear
2:56 AM 25.2 °F 16.5 °F 20.1 °F 81% 30.19 in 10.0 mi SSE 8.1 mph - N/A   Clear
3:56 AM 26.1 °F 15.6 °F 19.0 °F 75% 30.18 in 10.0 mi South 11.5 mph - N/A   Clear
4:56 AM 27.1 °F 16.4 °F 19.0 °F 72% 30.16 in 10.0 mi South 12.7 mph - N/A   Clear
5:56 AM 28.0 °F 16.1 °F 19.0 °F 69% 30.14 in 10.0 mi South 16.1 mph - N/A   Clear
6:56 AM 28.0 °F 14.9 °F 19.0 °F 69% 30.13 in 10.0 mi South 19.6 mph - N/A   Clear
7:56 AM 29.1 °F 17.9 °F 19.0 °F 66% 30.14 in 10.0 mi South 15.0 mph - N/A   Clear
8:56 AM 31.1 °F 18.3 °F 19.0 °F 61% 30.14 in 10.0 mi South 21.9 mph 29.9 mph N/A   Clear
9:56 AM 34.9 °F 23.3 °F 20.1 °F 55% 30.14 in 10.0 mi South 21.9 mph - N/A   Partly Cloudy
10:56 AM 36.9 °F 26.5 °F 21.0 °F 53% 30.11 in 10.0 mi SSE 19.6 mph - N/A   Overcast
11:56 AM 36.9 °F 27.5 °F 22.1 °F 55% 30.08 in 10.0 mi SSE 16.1 mph - N/A   Overcast
12:56 PM 38.8 °F 30.4 °F 24.1 °F 55% 30.04 in 10.0 mi SSE 15.0 mph - N/A   Overcast
1:56 PM 39.9 °F 32.5 °F 25.2 °F 56% 30.00 in 10.0 mi SSE 12.7 mph - N/A   Overcast
2:56 PM 41.0 °F 34.3 °F 27.1 °F 58% 29.97 in 10.0 mi SSE 11.5 mph - N/A   Overcast
3:56 PM 41.9 °F - 28.0 °F 58% 29.97 in 10.0 mi Calm Calm - N/A   Overcast
4:56 PM 41.9 °F 36.9 °F 29.1 °F 61% 29.97 in 10.0 mi South 8.1 mph - N/A   Overcast
5:56 PM 43.0 °F 37.7 °F 31.1 °F 63% 29.97 in 10.0 mi South 9.2 mph - N/A   Overcast
6:56 PM 41.0 °F 35.8 °F 32.0 °F 70% 29.98 in 10.0 mi SSE 8.1 mph - N/A   Overcast
7:56 PM 41.0 °F 37.1 °F 32.0 °F 70% 29.97 in 10.0 mi SE 5.8 mph - N/A   Overcast
8:56 PM 38.8 °F 36.5 °F 32.0 °F 76% 29.96 in 10.0 mi North 3.5 mph - N/A   Overcast
9:56 PM 36.9 °F 31.4 °F 32.0 °F 83% 29.96 in 10.0 mi ENE 6.9 mph - N/A   Overcast
10:56 PM 37.9 °F 31.5 °F 32.0 °F 79% 29.93 in 10.0 mi ESE 9.2 mph - N/A   Overcast
11:56 PM 43.0 °F 35.7 °F 34.9 °F 73% 29.89 in 10.0 mi SSE 15.0 mph - N/A   Overcast